Orbital Elements at Epoch 2459200.5 (2020-Dec-17.0) TDB
Reference: JPL 19 (heliocentric ecliptic J2000)
Element | Value | Uncertainty (1-sigma) | Units |
e | .2057557162123125 | 4.8378e-08 | |
a | 2.769597230528697 | 2.1138e-08 | au |
q | 2.199736768741628 | 1.3814e-07 | au |
i | 6.931346884325073 | 5.3494e-06 | deg |
node | 264.3381346553225 | 4.7725e-05 | deg |
peri | 63.59325091925231 | 4.962e-05 | deg |
M | 246.5635951823212 | 1.6754e-05 | deg |
tp | 2459730.985239402458 (2022-May-31.48523940) | 8.1919e-05 | TDB |
period | 1683.539658117954 4.61 | 1.9273e-05 5.277e-08 | d yr |
n | .2138351765365882 | 2.448e-09 | deg/d |
Q | 3.339457692315766 | 2.5487e-08 | au |
|
| | Orbit Determination Parameters
Additional Information
|